Zurück zum Katalog

COSMOS 2251 DEB

AktivLEO
NORAD 34482·DEBRIS·🇷🇺 Russia

Gestartet Jun 16, 1993 von Plesetsk Cosmodrome

Loading…

Nächste Überflüge (nächste 24 Stunden)

TLE

AktuellSource: Space-Track

Epoche: Sep 14, 2026, 09:41 UTC

1 34482U 93036UB  26257.40397876  .00006813  00000-0  10056-2 0  9990
2 34482  74.0353  46.9414 0040658  40.4183 350.1844 14.74896157922455

Verfolge COSMOS 2251 DEB in Echtzeit mit AllMySat

Download on the App Store